DL416 EDDM-EDJA

Flight info

Callsign DL416
Flight time 0h 29m
Altitude 8000
Route ALG2E/08R ALG DCT NORGU
Aircraft A20N/M-SDE2E3FGHIRWXY/LB1

Departure

Time 2026-05-09 10:08
Airport Munich Airport (EDDM)

Arrival

Time 2026-05-09 10:38
Airport Memmingen Allgau Airport (EDJA)
Time Latitude Longitude Altitude Speed Heading
2026-05-09 09:16 48.35467 11.79746 1467 ft 0 kts 84°
2026-05-09 09:42 48.35467 11.79744 1470 ft 1 kts 84°
2026-05-09 09:42 48.35466 11.79726 1462 ft 3 kts 83°
2026-05-09 09:42 48.35464 11.79691 1464 ft 4 kts 85°
2026-05-09 09:42 48.35459 11.79639 1462 ft 5 kts 63°
2026-05-09 09:43 48.35431 11.79608 1467 ft 3 kts 349°
2026-05-09 09:43 48.35432 11.79608 1467 ft 0 kts 353°
2026-05-09 09:44 48.35433 11.79608 1466 ft 0 kts 353°
2026-05-09 09:44 48.35464 11.79589 1464 ft 9 kts 313°
2026-05-09 09:45 48.35405 11.79494 1468 ft 28 kts 208°
2026-05-09 09:45 48.35219 11.79493 1467 ft 27 kts 171°
2026-05-09 09:45 48.35092 11.79509 1467 ft 2 kts 178°
2026-05-09 09:46 48.35086 11.79510 1467 ft 1 kts 178°
2026-05-09 09:46 48.35073 11.79511 1468 ft 2 kts 175°
2026-05-09 09:46 48.35055 11.79515 1462 ft 3 kts 170°
2026-05-09 09:46 48.35031 11.79522 1468 ft 4 kts 169°
2026-05-09 09:47 48.35000 11.79531 1466 ft 5 kts 169°
2026-05-09 09:47 48.34964 11.79542 1464 ft 6 kts 168°
2026-05-09 09:47 48.34926 11.79547 1470 ft 6 kts 176°
2026-05-09 09:47 48.34888 11.79552 1468 ft 6 kts 174°
2026-05-09 09:48 48.34844 11.79559 1462 ft 7 kts 175°
2026-05-09 09:48 48.34793 11.79560 1467 ft 8 kts 184°
2026-05-09 09:48 48.34738 11.79552 1468 ft 8 kts 181°
2026-05-09 09:48 48.34688 11.79524 1464 ft 8 kts 231°
2026-05-09 09:49 48.34670 11.79454 1469 ft 7 kts 250°
2026-05-09 09:49 48.34664 11.79432 1466 ft 0 kts 250°
2026-05-09 09:49 48.34664 11.79431 1466 ft 3 kts 257°
2026-05-09 09:50 48.34664 11.79368 1470 ft 2 kts 271°
2026-05-09 09:50 48.34663 11.79310 1470 ft 14 kts 265°
2026-05-09 09:50 48.34656 11.79220 1470 ft 1 kts 265°
2026-05-09 09:50 48.34655 11.79200 1467 ft 0 kts 265°
2026-05-09 09:51 48.34655 11.79197 1467 ft 0 kts 265°
2026-05-09 09:51 48.34654 11.79178 1467 ft 2 kts 264°
2026-05-09 09:51 48.34639 11.79000 1470 ft 22 kts 265°
2026-05-09 09:51 48.34622 11.78767 1466 ft 26 kts 263°
2026-05-09 09:52 48.34597 11.78456 1470 ft 32 kts 262°
2026-05-09 09:52 48.34571 11.78097 1470 ft 40 kts 262°
2026-05-09 09:52 48.34537 11.77655 1466 ft 42 kts 262°
2026-05-09 09:52 48.34504 11.77254 1463 ft 44 kts 263°
2026-05-09 09:53 48.34467 11.76797 1470 ft 24 kts 263°
2026-05-09 09:53 48.34454 11.76613 1470 ft 8 kts 261°
2026-05-09 09:53 48.34438 11.76396 1470 ft 34 kts 262°
2026-05-09 09:53 48.34417 11.76116 1469 ft 24 kts 262°
2026-05-09 09:54 48.34403 11.75946 1468 ft 26 kts 262°
2026-05-09 09:54 48.34382 11.75649 1469 ft 26 kts 264°
2026-05-09 09:54 48.34363 11.75390 1459 ft 14 kts 264°
2026-05-09 09:54 48.34362 11.75380 1460 ft 0 kts 264°
2026-05-09 09:55 48.34362 11.75379 1460 ft 0 kts 264°
2026-05-09 09:55 48.34362 11.75376 1461 ft 1 kts 264°
2026-05-09 09:55 48.34365 11.75300 1461 ft 1 kts 281°
2026-05-09 09:56 48.34361 11.75213 1462 ft 0 kts 245°
2026-05-09 09:56 48.34351 11.75215 1466 ft 3 kts 166°
2026-05-09 09:56 48.34348 11.75216 1459 ft 1 kts 166°
2026-05-09 09:56 48.34306 11.75226 1469 ft 0 kts 175°
2026-05-09 09:57 48.34305 11.75226 1469 ft 0 kts 175°
2026-05-09 09:58 48.34304 11.75226 1469 ft 0 kts 175°
2026-05-09 09:58 48.34304 11.75227 1469 ft 0 kts 175°
2026-05-09 09:59 48.34303 11.75227 1469 ft 0 kts 175°
2026-05-09 10:00 48.34302 11.75227 1469 ft 0 kts 174°
2026-05-09 10:05 48.34266 11.75233 1466 ft 7 kts 173°
2026-05-09 10:05 48.34240 11.75238 1460 ft 1 kts 173°
2026-05-09 10:05 48.34202 11.75246 1467 ft 0 kts 172°
2026-05-09 10:06 48.34197 11.75247 1466 ft 0 kts 172°
2026-05-09 10:06 48.34196 11.75247 1465 ft 0 kts 172°
2026-05-09 10:07 48.34152 11.75256 1472 ft 9 kts 171°
2026-05-09 10:07 48.34088 11.75354 1468 ft 22 kts 96°
2026-05-09 10:07 48.34116 11.75680 1471 ft 70 kts 85°
2026-05-09 10:08 48.34204 11.76912 1475 ft 163 kts 81°
2026-05-09 10:08 48.34344 11.78765 2008 ft 192 kts 86°
2026-05-09 10:08 48.34414 11.80881 2872 ft 214 kts 87°
2026-05-09 10:08 48.34528 11.83223 3762 ft 235 kts 83°
2026-05-09 10:09 48.34748 11.85711 4844 ft 238 kts 88°
2026-05-09 10:09 48.34345 11.87954 5912 ft 210 kts 117°
2026-05-09 10:09 48.33878 11.89974 6584 ft 204 kts 92°
2026-05-09 10:09 48.34235 11.92046 6929 ft 208 kts 67°
2026-05-09 10:10 48.34823 11.94106 7008 ft 234 kts 68°
2026-05-09 10:10 48.35186 11.96584 6999 ft 254 kts 95°
2026-05-09 10:10 48.34515 11.99110 6980 ft 270 kts 130°
2026-05-09 10:10 48.33009 12.00743 6994 ft 273 kts 154°
2026-05-09 10:11 48.31284 12.01970 6991 ft 274 kts 155°
2026-05-09 10:11 48.29492 12.02876 6985 ft 265 kts 171°
2026-05-09 10:11 48.27663 12.02973 6992 ft 266 kts 183°
2026-05-09 10:11 48.25810 12.02788 6991 ft 272 kts 184°
2026-05-09 10:12 48.23906 12.02590 6991 ft 274 kts 184°
2026-05-09 10:12 48.22000 12.02424 7233 ft 275 kts 184°
2026-05-09 10:12 48.20138 12.02287 7740 ft 250 kts 184°
2026-05-09 10:12 48.18509 12.02176 7946 ft 225 kts 183°
2026-05-09 10:13 48.16921 12.02071 8006 ft 246 kts 184°
2026-05-09 10:13 48.15099 12.01951 7994 ft 270 kts 184°
2026-05-09 10:13 48.13194 12.01835 7993 ft 275 kts 184°
2026-05-09 10:13 48.11275 12.01723 7984 ft 276 kts 183°
2026-05-09 10:14 48.09352 12.01511 7978 ft 278 kts 191°
2026-05-09 10:14 48.07623 12.00365 7992 ft 275 kts 220°
2026-05-09 10:14 48.06539 11.98035 7984 ft 274 kts 248°
2026-05-09 10:14 48.05992 11.95326 7970 ft 275 kts 255°
2026-05-09 10:15 48.05546 11.92546 7972 ft 275 kts 256°
2026-05-09 10:15 48.05104 11.89756 7985 ft 275 kts 256°
2026-05-09 10:15 48.04661 11.87016 7988 ft 274 kts 255°
2026-05-09 10:15 48.04203 11.84244 7984 ft 274 kts 256°
2026-05-09 10:16 48.03738 11.81453 7988 ft 276 kts 255°
2026-05-09 10:16 48.03274 11.78671 7966 ft 277 kts 255°
2026-05-09 10:16 48.02809 11.75914 7971 ft 277 kts 255°
2026-05-09 10:16 48.02335 11.73117 7980 ft 277 kts 255°
2026-05-09 10:17 48.01860 11.70323 7975 ft 276 kts 255°
2026-05-09 10:17 48.01395 11.67536 7969 ft 276 kts 257°
2026-05-09 10:17 48.01133 11.64721 7979 ft 277 kts 264°
2026-05-09 10:17 48.00985 11.61837 7973 ft 277 kts 265°
2026-05-09 10:18 48.00858 11.58954 7979 ft 278 kts 265°
2026-05-09 10:18 48.00730 11.56067 7990 ft 278 kts 265°
2026-05-09 10:18 48.00602 11.53219 7997 ft 277 kts 264°
2026-05-09 10:18 48.00470 11.50344 7990 ft 277 kts 264°
2026-05-09 10:19 48.00337 11.47468 7984 ft 276 kts 264°
2026-05-09 10:19 48.00208 11.44638 7991 ft 273 kts 264°
2026-05-09 10:19 48.00071 11.41799 7995 ft 276 kts 265°
2026-05-09 10:19 47.99929 11.38922 7999 ft 276 kts 264°
2026-05-09 10:20 47.99789 11.36088 8001 ft 277 kts 264°
2026-05-09 10:20 47.99640 11.33221 7989 ft 277 kts 264°
2026-05-09 10:20 47.99495 11.30347 8002 ft 277 kts 264°
2026-05-09 10:20 47.99353 11.27468 8001 ft 277 kts 264°
2026-05-09 10:21 47.99210 11.24626 7968 ft 276 kts 264°
2026-05-09 10:21 47.99073 11.21761 7983 ft 276 kts 264°
2026-05-09 10:21 47.98941 11.18933 7980 ft 276 kts 265°
2026-05-09 10:21 47.98798 11.16068 7989 ft 277 kts 264°
2026-05-09 10:22 47.98656 11.13208 7977 ft 277 kts 265°
2026-05-09 10:22 47.98502 11.10333 7979 ft 278 kts 264°
2026-05-09 10:22 47.98349 11.07456 7977 ft 277 kts 264°
2026-05-09 10:22 47.98204 11.04588 7981 ft 276 kts 264°
2026-05-09 10:23 47.98055 11.01717 7978 ft 277 kts 264°
2026-05-09 10:23 47.97912 10.98880 7982 ft 277 kts 264°
2026-05-09 10:23 47.97763 10.96010 7983 ft 277 kts 264°
2026-05-09 10:23 47.97615 10.93166 7994 ft 276 kts 264°
2026-05-09 10:24 47.97465 10.90290 7982 ft 276 kts 264°
2026-05-09 10:24 47.97315 10.87446 7980 ft 277 kts 264°
2026-05-09 10:24 47.96940 10.84634 7992 ft 276 kts 249°
2026-05-09 10:24 47.96106 10.82054 7994 ft 275 kts 239°
2026-05-09 10:25 47.95098 10.79622 7982 ft 274 kts 236°
2026-05-09 10:25 47.94056 10.77277 7985 ft 274 kts 235°
2026-05-09 10:25 47.92985 10.74921 8001 ft 275 kts 235°
2026-05-09 10:25 47.91906 10.72558 7986 ft 275 kts 235°
2026-05-09 10:26 47.90836 10.70219 7992 ft 275 kts 235°
2026-05-09 10:26 47.89752 10.67854 7998 ft 275 kts 235°
2026-05-09 10:26 47.88668 10.65495 7991 ft 275 kts 235°
2026-05-09 10:26 47.87585 10.63139 7982 ft 275 kts 235°
2026-05-09 10:27 47.86515 10.60813 7982 ft 275 kts 235°
2026-05-09 10:27 47.85432 10.58460 7986 ft 276 kts 235°
2026-05-09 10:27 47.84346 10.56104 7993 ft 275 kts 235°
2026-05-09 10:27 47.83259 10.53747 7982 ft 275 kts 235°
2026-05-09 10:28 47.82175 10.51399 7977 ft 275 kts 235°
2026-05-09 10:28 47.81102 10.49076 7853 ft 275 kts 235°
2026-05-09 10:28 47.80010 10.46715 7156 ft 281 kts 234°
2026-05-09 10:28 47.78867 10.44248 6228 ft 295 kts 234°
2026-05-09 10:29 47.77693 10.41717 5253 ft 306 kts 235°
2026-05-09 10:29 47.76471 10.39083 4485 ft 309 kts 235°
2026-05-09 10:29 47.75689 10.37331 4170 ft 303 kts 240°
2026-05-09 10:29 47.75077 10.34454 3987 ft 284 kts 269°
2026-05-09 10:30 47.75596 10.30818 3968 ft 264 kts 290°
2026-05-09 10:30 47.76037 10.29113 3975 ft 264 kts 291°
2026-05-09 10:30 47.76719 10.26597 3973 ft 263 kts 292°
2026-05-09 10:30 47.77381 10.24155 3968 ft 244 kts 291°
2026-05-09 10:31 47.77990 10.21888 3959 ft 227 kts 291°
2026-05-09 10:31 47.78552 10.19781 3957 ft 211 kts 291°
2026-05-09 10:31 47.79076 10.17803 3966 ft 202 kts 291°
2026-05-09 10:31 47.79580 10.15895 3996 ft 199 kts 290°
2026-05-09 10:32 47.80090 10.13961 3975 ft 201 kts 290°
2026-05-09 10:32 47.80600 10.12016 3970 ft 202 kts 290°
2026-05-09 10:32 47.81184 10.10111 3967 ft 202 kts 301°
2026-05-09 10:32 47.82098 10.08555 3967 ft 203 kts 321°
2026-05-09 10:33 47.83268 10.07373 3969 ft 203 kts 328°
2026-05-09 10:33 47.84487 10.06297 3967 ft 203 kts 329°
2026-05-09 10:33 47.85693 10.05253 3967 ft 203 kts 329°
2026-05-09 10:33 47.86912 10.04190 3967 ft 203 kts 329°
2026-05-09 10:34 47.88180 10.03265 3962 ft 203 kts 342°
2026-05-09 10:34 47.90818 10.04038 3965 ft 203 kts 42°
2026-05-09 10:34 47.91689 10.05679 3964 ft 199 kts 57°
2026-05-09 10:35 47.92373 10.07385 3955 ft 185 kts 60°
2026-05-09 10:35 47.93005 10.09033 3963 ft 182 kts 60°
2026-05-09 10:35 47.93618 10.10688 3946 ft 181 kts 61°
2026-05-09 10:35 47.94249 10.12271 3729 ft 179 kts 58°
2026-05-09 10:36 47.94890 10.13872 3479 ft 178 kts 59°
2026-05-09 10:36 47.95501 10.15425 3223 ft 169 kts 58°
2026-05-09 10:36 47.96077 10.16876 2997 ft 159 kts 58°
2026-05-09 10:36 47.96641 10.18297 2780 ft 158 kts 59°
2026-05-09 10:37 47.97205 10.19718 2569 ft 159 kts 59°
2026-05-09 10:37 47.97756 10.21111 2397 ft 156 kts 59°
2026-05-09 10:37 47.98321 10.22539 2128 ft 157 kts 57°
2026-05-09 10:37 47.98846 10.23855 2087 ft 142 kts 60°
2026-05-09 10:38 47.99208 10.24773 2070 ft 45 kts 59°
2026-05-09 10:38 47.99304 10.25018 2066 ft 26 kts 60°
2026-05-09 10:38 47.99391 10.25234 2062 ft 14 kts 54°
2026-05-09 10:38 47.99395 10.25349 2061 ft 14 kts 107°
2026-05-09 10:39 47.99376 10.25542 2061 ft 15 kts 70°
2026-05-09 10:39 47.99400 10.25555 2058 ft 2 kts 284°
2026-05-09 10:39 47.99352 10.25394 2060 ft 14 kts 239°
2026-05-09 10:39 47.99307 10.25280 2062 ft 12 kts 239°
2026-05-09 10:40 47.99299 10.25259 2062 ft 0 kts 238°
2026-05-09 10:40 47.99266 10.25178 2064 ft 30 kts 239°
2026-05-09 10:40 47.99160 10.24910 2068 ft 30 kts 239°
2026-05-09 10:41 47.99056 10.24650 2071 ft 29 kts 239°
2026-05-09 10:41 47.98955 10.24397 2073 ft 28 kts 239°
2026-05-09 10:41 47.98860 10.24152 2078 ft 27 kts 239°
2026-05-09 10:41 47.98773 10.23942 2079 ft 20 kts 237°
2026-05-09 10:42 47.98754 10.23851 2078 ft 4 kts 303°
2026-05-09 10:42 47.98847 10.23765 2081 ft 27 kts 324°
2026-05-09 10:42 47.98893 10.23552 2080 ft 22 kts 252°
2026-05-09 10:42 47.98844 10.23360 2084 ft 19 kts 250°
2026-05-09 10:43 47.98798 10.23165 2083 ft 21 kts 250°
2026-05-09 10:43 47.98746 10.22956 2081 ft 21 kts 240°
2026-05-09 10:43 47.98703 10.22833 2079 ft 11 kts 258°
2026-05-09 10:43 47.98703 10.22783 2077 ft 1 kts 295°
2026-05-09 10:44 47.98733 10.22766 2079 ft 0 kts 354°